Time,TemperatureF,DewpointF,PressureIn,WindDirection,WindDirectionDegrees,WindSpeedMPH,WindSpeedGustMPH,Humidity,HourlyPrecipIn,Conditions,Clouds,dailyrainin,SoftwareType,DateUTC
2013-04-18 00:02:00,57.4,30.0,30.74,WNW,286,0.0,0.0,35,0.00,,---,0.00,VWS V13.01,2013-04-18 07:02:00,
2013-04-18 00:07:00,57.2,29.8,30.80,WNW,286,0.0,0.0,35,0.00,,---,0.00,VWS V13.01,2013-04-18 07:07:00,
2013-04-18 00:12:00,57.2,29.8,30.80,WNW,286,0.0,0.0,35,0.00,,---,0.00,VWS V13.01,2013-04-18 07:12:00,
2013-04-18 00:17:00,57.2,30.5,30.80,WNW,286,0.0,0.0,36,0.00,,---,0.00,VWS V13.01,2013-04-18 07:17:00,
2013-04-18 00:23:00,57.0,30.4,30.92,WNW,286,0.0,0.0,36,0.00,,---,0.00,VWS V13.01,2013-04-18 07:23:00,
2013-04-18 00:28:00,57.0,31.0,30.92,WNW,286,0.0,0.0,37,0.00,,---,0.00,VWS V13.01,2013-04-18 07:28:00,
2013-04-18 00:33:00,56.8,30.2,30.92,WNW,286,0.0,0.0,36,0.00,,---,0.00,VWS V13.01,2013-04-18 07:33:00,
2013-04-18 00:38:00,56.8,30.2,30.92,West,271,0.0,0.0,36,0.00,,---,0.00,VWS V13.01,2013-04-18 07:38:00,
2013-04-18 00:43:00,56.7,30.0,30.92,West,261,0.0,0.0,36,0.00,,---,0.00,VWS V13.01,2013-04-18 07:43:00,
2013-04-18 00:49:00,56.5,29.9,30.92,West,260,0.0,0.0,36,0.00,,---,0.00,VWS V13.01,2013-04-18 07:49:00,
2013-04-18 00:54:00,56.5,29.9,30.95,West,260,0.0,0.0,36,0.00,,---,0.00,VWS V13.01,2013-04-18 07:54:00,
2013-04-18 00:59:00,56.5,29.9,30.95,West,260,0.0,0.0,36,0.00,,---,0.00,VWS V13.01,2013-04-18 07:59:00,
2013-04-18 01:05:00,56.3,29.7,30.95,West,260,0.0,0.0,36,0.00,,---,0.00,VWS V13.01,2013-04-18 08:05:00,
2013-04-18 01:10:00,56.1,29.5,30.95,West,260,0.0,0.0,36,0.00,,---,0.00,VWS V13.01,2013-04-18 08:10:00,
2013-04-18 01:16:00,55.9,30.1,30.95,West,260,0.0,0.0,37,0.00,,---,0.00,VWS V13.01,2013-04-18 08:16:00,
2013-04-18 01:22:00,55.8,29.2,30.98,West,260,0.0,0.0,36,0.00,,---,0.00,VWS V13.01,2013-04-18 08:22:00,
2013-04-18 01:27:00,55.6,28.4,30.98,West,260,0.0,0.0,35,0.00,,---,0.00,VWS V13.01,2013-04-18 08:27:00,
2013-04-18 01:32:00,55.6,29.1,30.98,West,260,0.0,0.0,36,0.00,,---,0.00,VWS V13.01,2013-04-18 08:32:00,
2013-04-18 01:37:00,55.6,28.4,31.01,West,260,0.0,0.0,35,0.00,,---,0.00,VWS V13.01,2013-04-18 08:37:00,
2013-04-18 01:43:00,55.4,28.2,31.01,SW,233,3.1,4.0,35,0.00,,---,0.00,VWS V13.01,2013-04-18 08:43:00,
2013-04-18 01:48:00,55.4,28.9,31.01,SW,227,2.7,4.0,36,0.00,,---,0.00,VWS V13.01,2013-04-18 08:48:00,
2013-04-18 01:53:00,55.4,28.2,31.01,SW,226,4.0,4.0,35,0.00,,---,0.00,VWS V13.01,2013-04-18 08:53:00,
2013-04-18 01:58:00,55.4,28.2,31.01,SW,224,0.0,4.0,35,0.00,,---,0.00,VWS V13.01,2013-04-18 08:58:00,
2013-04-18 02:03:00,55.4,28.9,31.01,SW,224,0.0,0.0,36,0.00,,---,0.00,VWS V13.01,2013-04-18 09:03:00,
2013-04-18 02:08:00,55.4,29.6,31.01,SW,224,0.0,0.0,37,0.00,,---,0.00,VWS V13.01,2013-04-18 09:08:00,
2013-04-18 02:14:00,55.2,29.4,31.01,SW,224,0.0,0.0,37,0.00,,---,0.00,VWS V13.01,2013-04-18 09:14:00,
2013-04-18 02:19:00,55.0,29.9,31.01,SW,224,0.0,0.0,38,0.00,,---,0.00,VWS V13.01,2013-04-18 09:19:00,
2013-04-18 02:24:00,54.9,29.8,31.01,SW,224,0.0,0.0,38,0.00,,---,0.00,VWS V13.01,2013-04-18 09:24:00,
2013-04-18 02:30:00,54.7,29.6,31.01,SW,224,0.0,0.0,38,0.00,,---,0.00,VWS V13.01,2013-04-18 09:30:00,
2013-04-18 02:35:00,54.5,29.4,31.01,SW,224,0.0,0.0,38,0.00,,---,0.00,VWS V13.01,2013-04-18 09:35:00,
2013-04-18 02:40:00,54.3,29.9,31.01,SW,224,0.0,0.0,39,0.00,,---,0.00,VWS V13.01,2013-04-18 09:40:00,
2013-04-18 02:46:00,54.3,29.9,31.01,SW,224,0.0,0.0,39,0.00,,---,0.00,VWS V13.01,2013-04-18 09:46:00,
2013-04-18 02:51:00,54.1,29.8,31.01,SW,224,0.0,0.0,39,0.00,,---,0.00,VWS V13.01,2013-04-18 09:51:00,
2013-04-18 02:56:00,54.1,29.8,31.01,SW,224,0.0,0.0,39,0.00,,---,0.00,VWS V13.01,2013-04-18 09:56:00,
2013-04-18 03:02:00,54.0,29.6,31.01,SW,224,0.0,0.0,39,0.00,,---,0.00,VWS V13.01,2013-04-18 10:02:00,
2013-04-18 03:07:00,53.8,30.0,31.01,SW,224,0.0,3.1,40,0.00,,---,0.00,VWS V13.01,2013-04-18 10:07:00,
2013-04-18 03:12:00,53.6,29.3,31.01,SW,224,0.0,0.0,39,0.00,,---,0.00,VWS V13.01,2013-04-18 10:12:00,
2013-04-18 03:17:00,53.6,29.3,31.01,SW,224,0.0,0.0,39,0.00,,---,0.00,VWS V13.01,2013-04-18 10:17:00,
2013-04-18 03:23:00,53.4,29.7,31.01,SW,224,0.0,0.0,40,0.00,,---,0.00,VWS V13.01,2013-04-18 10:23:00,
2013-04-18 03:28:00,53.2,29.6,31.01,SW,224,0.0,0.0,40,0.00,,---,0.00,VWS V13.01,2013-04-18 10:28:00,
2013-04-18 03:33:00,53.1,29.4,31.01,SW,224,0.0,4.0,40,0.00,,---,0.00,VWS V13.01,2013-04-18 10:33:00,
2013-04-18 03:39:00,52.9,28.6,31.01,SW,216,3.1,4.0,39,0.00,,---,0.00,VWS V13.01,2013-04-18 10:39:00,
2013-04-18 03:44:00,52.7,28.5,31.01,SSW,213,0.0,4.0,39,0.00,,---,0.00,VWS V13.01,2013-04-18 10:44:00,
2013-04-18 03:49:00,52.7,28.5,31.01,SSW,213,0.0,2.2,39,0.00,,---,0.00,VWS V13.01,2013-04-18 10:49:00,
2013-04-18 03:54:00,52.5,28.3,31.01,SSW,212,3.1,3.6,39,0.00,,---,0.00,VWS V13.01,2013-04-18 10:54:00,
2013-04-18 03:59:00,52.5,28.3,31.01,SSW,209,0.0,0.0,39,0.00,,---,0.00,VWS V13.01,2013-04-18 10:59:00,
2013-04-18 04:04:00,52.5,28.9,31.01,SSW,209,0.0,0.0,40,0.00,,---,0.00,VWS V13.01,2013-04-18 11:04:00,
2013-04-18 04:10:00,52.5,28.9,31.01,SSW,209,0.0,0.0,40,0.00,,---,0.00,VWS V13.01,2013-04-18 11:10:00,
2013-04-18 04:15:00,52.5,28.9,31.01,SSW,209,0.0,0.0,40,0.00,,---,0.00,VWS V13.01,2013-04-18 11:15:00,
2013-04-18 04:20:00,52.3,28.8,31.01,SSW,209,0.0,3.1,40,0.00,,---,0.00,VWS V13.01,2013-04-18 11:20:00,
2013-04-18 04:25:00,52.3,28.8,31.01,SSW,209,0.0,0.0,40,0.00,,---,0.00,VWS V13.01,2013-04-18 11:25:00,
2013-04-18 04:30:00,52.3,28.8,31.01,SSW,209,0.0,2.2,40,0.00,,---,0.00,VWS V13.01,2013-04-18 11:30:00,
2013-04-18 04:35:00,52.3,28.1,31.01,SSW,209,0.0,0.0,39,0.00,,---,0.00,VWS V13.01,2013-04-18 11:35:00,
2013-04-18 04:40:00,52.2,28.0,31.01,ESE,105,2.7,6.3,39,0.00,,---,0.00,VWS V13.01,2013-04-18 11:40:00,
2013-04-18 04:45:00,52.2,28.0,31.01,ESE,104,0.0,0.0,39,0.00,,---,0.00,VWS V13.01,2013-04-18 11:45:00,
2013-04-18 04:51:00,52.2,28.0,31.01,ESE,105,0.0,0.0,39,0.00,,---,0.00,VWS V13.01,2013-04-18 11:51:00,
2013-04-18 04:56:00,52.2,28.0,31.01,ESE,107,0.0,0.0,39,0.00,,---,0.00,VWS V13.01,2013-04-18 11:56:00,
2013-04-18 05:01:00,52.2,28.0,31.01,ESE,103,0.0,0.0,39,0.00,,---,0.00,VWS V13.01,2013-04-18 12:01:00,
2013-04-18 05:06:00,52.0,27.8,31.01,ESE,103,0.0,0.0,39,0.00,,---,0.00,VWS V13.01,2013-04-18 12:06:00,
2013-04-18 05:11:00,52.0,28.4,31.01,ESE,103,0.0,0.0,40,0.00,,---,0.00,VWS V13.01,2013-04-18 12:11:00,
2013-04-18 05:16:00,51.8,28.3,31.01,ESE,103,0.0,0.0,40,0.00,,---,0.00,VWS V13.01,2013-04-18 12:16:00,
2013-04-18 05:22:00,51.6,28.1,31.01,ESE,104,2.7,4.0,40,0.00,,---,0.00,VWS V13.01,2013-04-18 12:22:00,
2013-04-18 05:27:00,51.6,28.1,31.01,ESE,103,0.0,0.0,40,0.00,,---,0.00,VWS V13.01,2013-04-18 12:27:00,
2013-04-18 05:32:00,51.6,28.1,31.01,ESE,103,0.0,0.0,40,0.00,,---,0.00,VWS V13.01,2013-04-18 12:32:00,
2013-04-18 05:38:00,51.6,28.1,31.01,ESE,103,0.0,0.0,40,0.00,,---,0.00,VWS V13.01,2013-04-18 12:38:00,
2013-04-18 05:43:00,51.4,27.9,31.01,ESE,103,0.0,0.0,40,0.00,,---,0.00,VWS V13.01,2013-04-18 12:43:00,
2013-04-18 05:48:00,51.4,27.9,31.01,ESE,103,0.0,2.7,40,0.00,,---,0.00,VWS V13.01,2013-04-18 12:48:00,
2013-04-18 05:54:00,51.4,27.9,31.01,ESE,104,0.0,0.0,40,0.00,,---,0.00,VWS V13.01,2013-04-18 12:54:00,
2013-04-18 05:59:00,51.4,28.5,31.01,ESE,106,0.0,0.0,41,0.00,,---,0.00,VWS V13.01,2013-04-18 12:59:00,
2013-04-18 06:04:00,51.6,28.1,31.01,ESE,119,0.0,0.0,40,0.00,,---,0.00,VWS V13.01,2013-04-18 13:04:00,
2013-04-18 06:10:00,51.6,28.7,31.01,ESE,120,0.0,0.0,41,0.00,,---,0.00,VWS V13.01,2013-04-18 13:10:00,
2013-04-18 06:15:00,51.4,28.5,31.01,ESE,119,0.0,0.0,41,0.00,,---,0.00,VWS V13.01,2013-04-18 13:15:00,
2013-04-18 06:20:00,51.6,28.7,31.01,ESE,119,0.0,0.0,41,0.00,,---,0.00,VWS V13.01,2013-04-18 13:20:00,
2013-04-18 06:25:00,51.6,28.7,31.01,ESE,119,0.0,0.0,41,0.00,,---,0.00,VWS V13.01,2013-04-18 13:25:00,
2013-04-18 06:31:00,51.6,28.7,31.01,ESE,121,0.0,2.7,41,0.00,,---,0.00,VWS V13.01,2013-04-18 13:31:00,
2013-04-18 06:36:00,51.8,28.3,31.01,ESE,122,0.0,0.0,40,0.00,,---,0.00,VWS V13.01,2013-04-18 13:36:00,
2013-04-18 06:41:00,52.0,28.4,31.01,ESE,108,4.0,4.0,40,0.00,,---,0.00,VWS V13.01,2013-04-18 13:41:00,
2013-04-18 06:47:00,52.2,28.6,31.01,ESE,110,2.2,3.6,40,0.00,,---,0.00,VWS V13.01,2013-04-18 13:47:00,
2013-04-18 06:52:00,52.5,28.9,31.01,ESE,110,0.0,0.0,40,0.00,,---,0.00,VWS V13.01,2013-04-18 13:52:00,
2013-04-18 06:57:00,52.7,29.1,31.01,ESE,110,0.0,0.0,40,0.00,,---,0.00,VWS V13.01,2013-04-18 13:57:00,
2013-04-18 07:03:00,53.1,29.4,31.01,ESE,109,0.0,0.0,40,0.00,,---,0.00,VWS V13.01,2013-04-18 14:03:00,
2013-04-18 07:08:00,53.2,29.6,31.01,ESE,109,2.7,2.7,40,0.00,,---,0.00,VWS V13.01,2013-04-18 14:08:00,
2013-04-18 07:13:00,53.4,29.7,31.01,ESE,107,0.0,0.0,40,0.00,,---,0.00,VWS V13.01,2013-04-18 14:13:00,
2013-04-18 07:18:00,53.8,30.0,31.01,ESE,108,0.0,0.0,40,0.00,,---,0.00,VWS V13.01,2013-04-18 14:18:00,
2013-04-18 07:23:00,54.0,29.0,31.01,ESE,119,0.0,0.0,38,0.00,,---,0.00,VWS V13.01,2013-04-18 14:23:00,
2013-04-18 07:28:00,54.1,29.1,31.01,South,171,0.0,0.0,38,0.00,,---,0.00,VWS V13.01,2013-04-18 14:28:00,
2013-04-18 07:34:00,54.3,28.6,31.01,West,265,2.7,6.3,37,0.00,,---,0.00,VWS V13.01,2013-04-18 14:34:00,
2013-04-18 07:39:00,54.3,28.0,31.01,West,279,4.0,6.3,36,0.00,,---,0.00,VWS V13.01,2013-04-18 14:39:00,
2013-04-18 07:44:00,54.3,28.0,31.01,West,269,0.0,4.0,36,0.00,,---,0.00,VWS V13.01,2013-04-18 14:44:00,
2013-04-18 07:50:00,54.7,28.3,31.01,SW,230,2.2,5.4,36,0.00,,---,0.00,VWS V13.01,2013-04-18 14:50:00,
2013-04-18 07:55:00,54.5,26.7,31.01,WNW,287,5.4,5.4,34,0.00,,---,0.00,VWS V13.01,2013-04-18 14:55:00,
2013-04-18 08:00:00,54.7,26.2,31.01,WNW,294,0.0,2.7,33,0.00,,---,0.00,VWS V13.01,2013-04-18 15:00:00,
2013-04-18 08:06:00,54.9,25.6,31.01,WNW,293,0.0,4.9,32,0.00,,---,0.00,VWS V13.01,2013-04-18 15:06:00,
2013-04-18 08:11:00,55.0,25.7,31.01,WNW,291,0.0,0.0,32,0.00,,---,0.00,VWS V13.01,2013-04-18 15:11:00,
2013-04-18 08:16:00,55.6,28.4,31.01,West,277,0.0,0.0,35,0.00,,---,0.00,VWS V13.01,2013-04-18 15:16:00,
2013-04-18 08:21:00,55.9,28.7,31.01,West,277,0.0,0.0,35,0.00,,---,0.00,VWS V13.01,2013-04-18 15:21:00,
2013-04-18 08:27:00,56.1,27.4,31.01,WNW,295,0.0,2.2,33,0.00,,---,0.00,VWS V13.01,2013-04-18 15:27:00,
2013-04-18 08:32:00,56.5,29.2,31.01,WNW,295,0.0,0.0,35,0.00,,---,0.00,VWS V13.01,2013-04-18 15:32:00,
2013-04-18 08:37:00,56.5,27.8,31.01,WNW,290,0.0,4.5,33,0.00,,---,0.00,VWS V13.01,2013-04-18 15:37:00,
2013-04-18 08:43:00,56.8,28.8,31.01,WNW,290,0.0,0.0,34,0.00,,---,0.00,VWS V13.01,2013-04-18 15:43:00,
2013-04-18 08:48:00,56.7,26.4,31.01,WNW,294,0.0,3.6,31,0.00,,---,0.00,VWS V13.01,2013-04-18 15:48:00,
2013-04-18 08:53:00,57.0,27.5,31.01,WNW,294,0.0,0.0,32,0.00,,---,0.00,VWS V13.01,2013-04-18 15:53:00,
2013-04-18 08:58:00,57.4,29.3,31.01,NNW,346,4.0,4.0,34,0.00,,---,0.00,VWS V13.01,2013-04-18 15:58:00,
2013-04-18 09:04:00,57.7,30.3,31.01,North,360,0.0,0.0,35,0.00,,---,0.00,VWS V13.01,2013-04-18 16:04:00,
2013-04-18 09:09:00,57.9,28.3,31.01,West,267,0.0,4.9,32,0.00,,---,0.00,VWS V13.01,2013-04-18 16:09:00,
2013-04-18 09:14:00,58.1,28.4,31.01,West,265,0.0,0.0,32,0.00,,---,0.00,VWS V13.01,2013-04-18 16:14:00,
2013-04-18 09:20:00,58.5,29.5,31.01,West,273,0.0,0.0,33,0.00,,---,0.00,VWS V13.01,2013-04-18 16:20:00,
2013-04-18 09:25:00,58.1,26.0,31.01,WNW,287,0.0,0.0,29,0.00,,---,0.00,VWS V13.01,2013-04-18 16:25:00,
2013-04-18 09:30:00,58.5,26.3,31.01,WNW,294,3.1,3.6,29,0.00,,---,0.00,VWS V13.01,2013-04-18 16:30:00,
2013-04-18 09:36:00,58.5,26.3,31.01,WNW,285,0.0,6.3,29,0.00,,---,0.00,VWS V13.01,2013-04-18 16:36:00,
2013-04-18 09:41:00,59.2,29.4,31.01,North,351,3.1,4.0,32,0.00,,---,0.00,VWS V13.01,2013-04-18 16:41:00,
2013-04-18 09:47:00,59.4,28.7,31.01,West,265,0.0,0.0,31,0.00,,---,0.00,VWS V13.01,2013-04-18 16:47:00,
2013-04-18 09:52:00,59.9,29.2,31.01,NNW,340,0.0,8.7,31,0.00,,---,0.00,VWS V13.01,2013-04-18 16:52:00,
2013-04-18 09:57:00,60.1,27.7,31.01,NNW,347,0.0,0.0,29,0.00,,---,0.00,VWS V13.01,2013-04-18 16:57:00,
2013-04-18 10:02:00,60.3,28.7,31.01,NW,308,0.0,4.0,30,0.00,,---,0.00,VWS V13.01,2013-04-18 17:02:00,
2013-04-18 10:07:00,60.1,26.0,31.01,West,271,4.0,6.3,27,0.00,,---,0.00,VWS V13.01,2013-04-18 17:07:00,
2013-04-18 10:12:00,60.3,27.0,31.01,SSW,210,0.0,0.0,28,0.00,,---,0.00,VWS V13.01,2013-04-18 17:12:00,
2013-04-18 10:17:00,60.8,29.2,31.01,East,96,4.0,6.3,30,0.00,,---,0.00,VWS V13.01,2013-04-18 17:17:00,
2013-04-18 10:23:00,61.3,30.5,31.01,NW,311,3.1,3.1,31,0.00,,---,0.00,VWS V13.01,2013-04-18 17:23:00,
2013-04-18 10:28:00,61.2,25.1,31.01,NNW,338,4.0,6.3,25,0.00,,---,0.00,VWS V13.01,2013-04-18 17:28:00,
2013-04-18 10:33:00,61.2,25.1,31.01,North,353,4.9,4.9,25,0.00,,---,0.00,VWS V13.01,2013-04-18 17:33:00,
2013-04-18 10:39:00,61.3,25.2,31.01,NNW,338,0.0,4.0,25,0.00,,---,0.00,VWS V13.01,2013-04-18 17:39:00,
2013-04-18 10:44:00,61.5,25.4,31.01,WNW,287,4.0,5.8,25,0.00,,---,0.00,VWS V13.01,2013-04-18 17:44:00,
2013-04-18 10:49:00,61.9,26.6,31.01,WSW,252,5.4,5.8,26,0.00,,---,0.00,VWS V13.01,2013-04-18 17:49:00,
2013-04-18 10:55:00,62.1,24.9,31.01,WSW,241,4.0,7.6,24,0.00,,---,0.00,VWS V13.01,2013-04-18 17:55:00,
2013-04-18 11:00:00,62.1,21.7,31.01,SSW,194,0.0,4.0,21,0.00,,---,0.00,VWS V13.01,2013-04-18 18:00:00,
2013-04-18 11:06:00,62.2,12.5,31.01,NW,311,5.8,6.3,14,0.00,,---,0.00,VWS V13.01,2013-04-18 18:06:00,
2013-04-18 11:11:00,62.4,25.2,31.01,WNW,282,4.0,7.2,24,0.00,,---,0.00,VWS V13.01,2013-04-18 18:11:00,
2013-04-18 11:16:00,62.4,15.7,31.01,WNW,286,5.4,5.4,16,0.00,,---,0.00,VWS V13.01,2013-04-18 18:16:00,
2013-04-18 11:22:00,62.6,24.3,31.01,SSW,201,0.0,0.0,23,0.00,,---,0.00,VWS V13.01,2013-04-18 18:22:00,
2013-04-18 11:27:00,62.8,7.5,31.01,WNW,290,5.8,5.8,11,0.00,,---,0.00,VWS V13.01,2013-04-18 18:27:00,
2013-04-18 11:32:00,63.0,24.6,31.01,NE,39,2.2,4.9,23,0.00,,---,0.00,VWS V13.01,2013-04-18 18:32:00,
2013-04-18 11:37:00,63.0,0.7,31.01,NNW,340,0.0,0.0,8,0.00,,---,0.00,VWS V13.01,2013-04-18 18:37:00,
2013-04-18 11:42:00,63.1,25.8,31.01,North,352,4.9,4.9,24,0.00,,---,0.00,VWS V13.01,2013-04-18 18:42:00,
2013-04-18 11:48:00,63.5,27.1,31.01,ENE,58,0.0,4.9,25,0.00,,---,0.00,VWS V13.01,2013-04-18 18:48:00,
2013-04-18 11:53:00,63.7,27.2,31.01,WNW,283,7.6,7.6,25,0.00,,---,0.00,VWS V13.01,2013-04-18 18:53:00,
2013-04-18 11:58:00,63.9,8.4,31.01,NNW,337,0.0,0.0,11,0.00,,---,0.00,VWS V13.01,2013-04-18 18:58:00,
2013-04-18 12:03:00,64.0,-4.5,31.01,WSW,244,3.6,6.3,6,0.00,,---,0.00,VWS V13.01,2013-04-18 19:03:00,
2013-04-18 12:08:00,64.0,-4.5,31.01,NNW,348,2.7,7.6,6,0.00,,---,0.00,VWS V13.01,2013-04-18 19:08:00,
2013-04-18 12:13:00,64.2,12.4,31.01,North,354,6.3,6.3,13,0.00,,---,0.00,VWS V13.01,2013-04-18 19:13:00,
2013-04-18 12:19:00,64.2,-8.1,31.01,WNW,302,4.0,5.8,5,0.00,,---,0.00,VWS V13.01,2013-04-18 19:19:00,
2013-04-18 12:24:00,64.4,-12.5,31.01,WNW,288,3.1,8.3,4,0.00,,---,0.00,VWS V13.01,2013-04-18 19:24:00,
2013-04-18 12:29:00,64.8,-12.3,31.01,SW,225,6.3,8.3,4,0.00,,---,0.00,VWS V13.01,2013-04-18 19:29:00,
2013-04-18 12:34:00,65.1,-12.0,31.01,West,274,3.6,10.1,4,0.00,,---,0.00,VWS V13.01,2013-04-18 19:34:00,
2013-04-18 12:40:00,65.3,-11.9,31.01,WNW,297,2.7,6.3,4,0.00,,---,0.00,VWS V13.01,2013-04-18 19:40:00,
2013-04-18 12:45:00,65.3,-11.9,31.01,NW,324,2.2,4.0,4,0.00,,---,0.00,VWS V13.01,2013-04-18 19:45:00,
2013-04-18 12:50:00,65.3,-11.9,31.01,WSW,237,8.1,8.3,4,0.00,,---,0.00,VWS V13.01,2013-04-18 19:50:00,
2013-04-18 12:55:00,65.3,-11.9,31.01,SSW,192,5.8,7.6,4,0.00,,---,0.00,VWS V13.01,2013-04-18 19:55:00,
2013-04-18 13:00:00,65.7,-11.6,31.01,West,259,2.7,5.8,4,0.00,,---,0.00,VWS V13.01,2013-04-18 20:00:00,
2013-04-18 13:05:00,65.7,-11.6,31.01,WNW,284,6.3,13.6,4,0.00,,---,0.00,VWS V13.01,2013-04-18 20:05:00,
2013-04-18 13:10:00,65.8,-11.5,31.01,West,281,8.3,8.3,4,0.00,,---,0.00,VWS V13.01,2013-04-18 20:10:00,
2013-04-18 13:15:00,65.7,-11.6,31.01,NW,307,5.4,8.3,4,0.00,,---,0.00,VWS V13.01,2013-04-18 20:15:00,
2013-04-18 13:21:00,66.0,-11.4,31.01,WNW,302,3.6,7.6,4,0.00,,---,0.00,VWS V13.01,2013-04-18 20:21:00,
2013-04-18 13:26:00,65.8,-11.5,31.01,West,267,8.7,11.4,4,0.00,,---,0.00,VWS V13.01,2013-04-18 20:26:00,
2013-04-18 13:31:00,66.0,-11.4,31.01,South,181,7.6,11.0,4,0.00,,---,0.00,VWS V13.01,2013-04-18 20:31:00,
2013-04-18 13:36:00,66.0,-11.4,31.01,South,190,5.4,10.1,4,0.00,,---,0.00,VWS V13.01,2013-04-18 20:36:00,
2013-04-18 13:41:00,66.2,-11.3,31.01,WNW,291,7.6,10.5,4,0.00,,---,0.00,VWS V13.01,2013-04-18 20:41:00,
2013-04-18 13:46:00,66.2,-11.3,31.01,WSW,237,3.6,6.7,4,0.00,,---,0.00,VWS V13.01,2013-04-18 20:46:00,
2013-04-18 13:52:00,66.4,-11.1,31.01,NW,312,3.6,7.6,4,0.00,,---,0.00,VWS V13.01,2013-04-18 20:52:00,
2013-04-18 13:57:00,66.6,-11.0,31.01,North,358,4.0,6.3,4,0.00,,---,0.00,VWS V13.01,2013-04-18 20:57:00,
2013-04-18 14:02:00,66.2,-11.3,31.01,East,101,3.1,7.6,4,0.00,,---,0.00,VWS V13.01,2013-04-18 21:02:00,
2013-04-18 14:07:00,66.2,-11.3,31.01,WNW,298,5.8,5.8,4,0.00,,---,0.00,VWS V13.01,2013-04-18 21:07:00,
2013-04-18 14:12:00,66.4,-11.1,31.01,SSW,208,2.2,8.1,4,0.00,,---,0.00,VWS V13.01,2013-04-18 21:12:00,
2013-04-18 14:18:00,66.4,-11.1,31.01,WSW,241,0.0,2.2,4,0.00,,---,0.00,VWS V13.01,2013-04-18 21:18:00,
2013-04-18 14:23:00,66.6,-11.0,31.01,NW,304,8.3,8.7,4,0.00,,---,0.00,VWS V13.01,2013-04-18 21:23:00,
2013-04-18 14:28:00,66.6,-11.0,31.01,NW,311,0.0,6.3,4,0.00,,---,0.00,VWS V13.01,2013-04-18 21:28:00,
2013-04-18 14:33:00,66.6,-11.0,31.01,NNW,330,7.6,7.6,4,0.00,,---,0.00,VWS V13.01,2013-04-18 21:33:00,
2013-04-18 14:38:00,66.6,-11.0,30.98,South,173,5.4,5.4,4,0.00,,---,0.00,VWS V13.01,2013-04-18 21:38:00,
2013-04-18 14:44:00,66.6,-11.0,30.98,WNW,296,3.6,8.1,4,0.00,,---,0.00,VWS V13.01,2013-04-18 21:44:00,
2013-04-18 14:49:00,66.7,-10.9,30.98,West,279,7.6,7.6,4,0.00,,---,0.00,VWS V13.01,2013-04-18 21:49:00,
2013-04-18 14:54:00,66.7,-10.9,30.95,SSW,210,4.9,5.8,4,0.00,,---,0.00,VWS V13.01,2013-04-18 21:54:00,
2013-04-18 14:59:00,66.9,-10.8,30.95,NW,320,4.0,8.1,4,0.00,,---,0.00,VWS V13.01,2013-04-18 21:59:00,
2013-04-18 15:05:00,66.7,-10.9,30.92,South,186,5.4,8.1,4,0.00,,---,0.00,VWS V13.01,2013-04-18 22:05:00,
2013-04-18 15:10:00,66.9,-10.8,30.92,SW,233,5.8,10.1,4,0.00,,---,0.00,VWS V13.01,2013-04-18 22:10:00,
2013-04-18 15:15:00,66.9,-10.8,30.92,South,183,3.1,8.3,4,0.00,,---,0.00,VWS V13.01,2013-04-18 22:15:00,
2013-04-18 15:20:00,66.9,-10.8,30.92,West,281,3.6,5.8,4,0.00,,---,0.00,VWS V13.01,2013-04-18 22:20:00,
2013-04-18 15:26:00,67.1,-10.6,30.92,WSW,239,7.6,9.2,4,0.00,,---,0.00,VWS V13.01,2013-04-18 22:26:00,
2013-04-18 15:31:00,66.9,-10.8,30.92,West,277,6.3,8.7,4,0.00,,---,0.00,VWS V13.01,2013-04-18 22:31:00,
2013-04-18 15:36:00,66.9,-10.8,30.86,WNW,286,9.6,9.6,4,0.00,,---,0.00,VWS V13.01,2013-04-18 22:36:00,
2013-04-18 15:42:00,66.9,-10.8,30.86,NNE,18,4.0,5.8,4,0.00,,---,0.00,VWS V13.01,2013-04-18 22:42:00,
2013-04-18 15:47:00,66.9,-10.8,30.86,North,7,3.1,5.8,4,0.00,,---,0.00,VWS V13.01,2013-04-18 22:47:00,
2013-04-18 15:52:00,66.9,-10.8,30.83,WNW,302,3.1,6.3,4,0.00,,---,0.00,VWS V13.01,2013-04-18 22:52:00,
2013-04-18 15:57:00,66.9,-10.8,30.83,WSW,241,3.6,7.6,4,0.00,,---,0.00,VWS V13.01,2013-04-18 22:57:00,
2013-04-18 16:03:00,66.9,-10.8,30.83,SW,233,5.8,10.1,4,0.00,,---,0.00,VWS V13.01,2013-04-18 23:03:00,
2013-04-18 16:08:00,66.9,-10.8,30.77,WSW,242,8.1,8.1,4,0.00,,---,0.00,VWS V13.01,2013-04-18 23:08:00,
2013-04-18 16:13:00,66.9,-10.8,30.77,WNW,300,4.0,4.0,4,0.00,,---,0.00,VWS V13.01,2013-04-18 23:13:00,
2013-04-18 16:18:00,67.3,-10.5,30.77,West,267,6.3,7.6,4,0.00,,---,0.00,VWS V13.01,2013-04-18 23:18:00,
2013-04-18 16:23:00,67.3,-10.5,30.65,West,263,3.1,11.0,4,0.00,,---,0.00,VWS V13.01,2013-04-18 23:23:00,
2013-04-18 16:28:00,67.1,-10.6,30.65,SW,234,5.4,11.0,4,0.00,,---,0.00,VWS V13.01,2013-04-18 23:28:00,
2013-04-18 16:34:00,67.1,-10.6,30.65,West,267,6.3,6.3,4,0.00,,---,0.00,VWS V13.01,2013-04-18 23:34:00,
2013-04-18 16:39:00,67.1,-10.6,30.30,WNW,302,8.7,8.7,4,0.00,,---,0.00,VWS V13.01,2013-04-18 23:39:00,
2013-04-18 16:44:00,67.1,-10.6,30.30,WSW,249,3.1,8.3,4,0.00,,---,0.00,VWS V13.01,2013-04-18 23:44:00,
2013-04-18 16:49:00,67.1,-10.6,30.30,WNW,295,5.4,11.0,4,0.00,,---,0.00,VWS V13.01,2013-04-18 23:49:00,
2013-04-18 16:55:00,67.1,-10.6,29.97,West,268,13.2,13.6,4,0.00,,---,0.00,VWS V13.01,2013-04-18 23:55:00,
2013-04-18 17:00:00,66.9,-10.8,29.97,SSW,205,10.5,11.0,4,0.00,,---,0.00,VWS V13.01,2013-04-19 00:00:00,
2013-04-18 17:05:00,66.9,-10.8,29.50,West,269,8.1,12.3,4,0.00,,---,0.00,VWS V13.01,2013-04-19 00:05:00,
2013-04-18 17:11:00,66.9,-10.8,29.50,SW,229,11.0,13.2,4,0.00,,---,0.00,VWS V13.01,2013-04-19 00:11:00,
2013-04-18 17:16:00,66.7,-10.9,29.50,West,269,8.7,11.9,4,0.00,,---,0.00,VWS V13.01,2013-04-19 00:16:00,
2013-04-18 17:21:00,66.7,-10.9,29.38,WSW,253,8.7,15.4,4,0.00,,---,0.00,VWS V13.01,2013-04-19 00:21:00,
2013-04-18 17:26:00,66.6,-11.0,29.38,SW,228,13.2,13.6,4,0.00,,---,0.00,VWS V13.01,2013-04-19 00:26:00,
2013-04-18 17:32:00,66.4,-11.1,29.38,West,277,10.1,14.5,4,0.00,,---,0.00,VWS V13.01,2013-04-19 00:32:00,
2013-04-18 17:37:00,66.4,-11.1,29.26,West,273,8.3,11.0,4,0.00,,---,0.00,VWS V13.01,2013-04-19 00:37:00,
2013-04-18 17:42:00,66.2,-11.3,29.26,West,263,8.3,14.5,4,0.00,,---,0.00,VWS V13.01,2013-04-19 00:42:00,
2013-04-18 17:48:00,66.0,-11.4,29.26,West,267,7.6,11.0,4,0.00,,---,0.00,VWS V13.01,2013-04-19 00:48:00,
2013-04-18 17:53:00,66.0,-11.4,29.23,WSW,254,8.1,10.5,4,0.00,,---,0.00,VWS V13.01,2013-04-19 00:53:00,
2013-04-18 17:58:00,65.8,-11.5,29.23,West,266,8.1,12.8,4,0.00,,---,0.00,VWS V13.01,2013-04-19 00:58:00,
2013-04-18 18:03:00,65.7,-11.6,29.23,WSW,246,12.3,12.3,4,0.00,,---,0.00,VWS V13.01,2013-04-19 01:03:00,
2013-04-18 18:09:00,65.5,-11.8,29.23,NW,311,11.0,11.0,4,0.00,,---,0.00,VWS V13.01,2013-04-19 01:09:00,
2013-04-18 18:14:00,65.5,-11.8,29.23,WSW,253,10.1,11.9,4,0.00,,---,0.00,VWS V13.01,2013-04-19 01:14:00,
2013-04-18 18:19:00,65.3,-11.9,29.23,West,264,7.6,11.9,4,0.00,,---,0.00,VWS V13.01,2013-04-19 01:19:00,
2013-04-18 18:24:00,65.1,-12.0,29.29,West,267,8.7,10.5,4,0.00,,---,0.00,VWS V13.01,2013-04-19 01:24:00,
2013-04-18 18:29:00,64.8,-12.3,29.29,WNW,289,5.4,10.5,4,0.00,,---,0.00,VWS V13.01,2013-04-19 01:29:00,
2013-04-18 18:34:00,64.6,-12.4,29.29,WNW,283,8.1,13.2,4,0.00,,---,0.00,VWS V13.01,2013-04-19 01:34:00,
2013-04-18 18:40:00,64.4,-12.5,29.32,WNW,287,5.4,10.5,4,0.00,,---,0.00,VWS V13.01,2013-04-19 01:40:00,
2013-04-18 18:45:00,64.2,-8.1,29.32,WNW,293,8.7,11.0,5,0.00,,---,0.00,VWS V13.01,2013-04-19 01:45:00,
2013-04-18 18:50:00,64.0,-8.3,29.29,WNW,287,5.4,10.1,5,0.00,,---,0.00,VWS V13.01,2013-04-19 01:50:00,
2013-04-18 18:56:00,63.9,-8.4,29.29,West,271,10.5,10.5,5,0.00,,---,0.00,VWS V13.01,2013-04-19 01:56:00,
2013-04-18 19:01:00,63.7,-8.5,29.29,NW,307,6.3,6.3,5,0.00,,---,0.00,VWS V13.01,2013-04-19 02:01:00,
2013-04-18 19:06:00,63.5,-8.6,29.29,WNW,294,2.7,8.3,5,0.00,,---,0.00,VWS V13.01,2013-04-19 02:06:00,
2013-04-18 19:11:00,63.3,-8.8,29.29,NW,318,5.4,8.7,5,0.00,,---,0.00,VWS V13.01,2013-04-19 02:11:00,
2013-04-18 19:17:00,63.1,-8.9,29.29,West,271,7.6,10.5,5,0.00,,---,0.00,VWS V13.01,2013-04-19 02:17:00,
2013-04-18 19:22:00,63.1,-8.9,29.38,WSW,243,2.7,10.5,5,0.00,,---,0.00,VWS V13.01,2013-04-19 02:22:00,
2013-04-18 19:27:00,63.0,-9.0,29.38,WSW,255,5.4,9.6,5,0.00,,---,0.00,VWS V13.01,2013-04-19 02:27:00,
2013-04-18 19:33:00,62.8,-9.2,29.38,WSW,245,3.1,5.8,5,0.00,,---,0.00,VWS V13.01,2013-04-19 02:33:00,
2013-04-18 19:38:00,62.6,-9.3,29.32,WSW,255,4.0,8.7,5,0.00,,---,0.00,VWS V13.01,2013-04-19 02:38:00,
2013-04-18 19:43:00,62.6,-9.3,29.32,NW,306,3.1,9.6,5,0.00,,---,0.00,VWS V13.01,2013-04-19 02:43:00,
2013-04-18 19:48:00,62.4,-9.4,29.32,NW,311,6.7,7.2,5,0.00,,---,0.00,VWS V13.01,2013-04-19 02:48:00,
2013-04-18 19:54:00,62.2,-9.6,29.38,WNW,288,5.4,7.6,5,0.00,,---,0.00,VWS V13.01,2013-04-19 02:54:00,
2013-04-18 19:59:00,62.1,-9.7,29.38,West,279,5.8,11.0,5,0.00,,---,0.00,VWS V13.01,2013-04-19 02:59:00,
2013-04-18 20:04:00,62.1,-9.7,29.38,WNW,294,0.0,6.3,5,0.00,,---,0.00,VWS V13.01,2013-04-19 03:04:00,
2013-04-18 20:10:00,61.9,-9.8,29.44,WNW,292,3.6,6.3,5,0.00,,---,0.00,VWS V13.01,2013-04-19 03:10:00,
2013-04-18 20:15:00,61.9,-9.8,29.44,WSW,249,2.7,6.7,5,0.00,,---,0.00,VWS V13.01,2013-04-19 03:15:00,
2013-04-18 20:20:00,61.7,-9.9,29.44,WNW,290,3.6,5.8,5,0.00,,---,0.00,VWS V13.01,2013-04-19 03:20:00,
2013-04-18 20:25:00,61.7,-9.9,29.50,West,275,5.4,5.4,5,0.00,,---,0.00,VWS V13.01,2013-04-19 03:25:00,
2013-04-18 20:31:00,61.7,-9.9,29.50,WNW,290,4.9,6.7,5,0.00,,---,0.00,VWS V13.01,2013-04-19 03:31:00,
2013-04-18 20:36:00,61.7,-9.9,29.59,West,263,2.7,2.7,5,0.00,,---,0.00,VWS V13.01,2013-04-19 03:36:00,
2013-04-18 20:41:00,61.7,-9.9,29.59,West,264,0.0,0.0,5,0.00,,---,0.00,VWS V13.01,2013-04-19 03:41:00,
2013-04-18 20:46:00,61.5,-10.1,29.59,West,264,0.0,0.0,5,0.00,,---,0.00,VWS V13.01,2013-04-19 03:46:00,
2013-04-18 20:51:00,61.3,-10.2,29.85,West,265,0.0,0.0,5,0.00,,---,0.00,VWS V13.01,2013-04-19 03:51:00,
2013-04-18 20:56:00,61.3,-10.2,29.85,West,265,0.0,0.0,5,0.00,,---,0.00,VWS V13.01,2013-04-19 03:56:00,
2013-04-18 21:01:00,61.2,-10.3,29.85,West,265,0.0,0.0,5,0.00,,---,0.00,VWS V13.01,2013-04-19 04:01:00,
2013-04-18 21:02:00,61.2,-6.6,29.85,West,265,0.0,0.0,6,0.00,,---,0.00,VWS V13.01,2013-04-19 04:02:00,
2013-04-18 21:03:00,61.0,-10.4,29.85,West,265,0.0,0.0,5,0.00,,---,0.00,VWS V13.01,2013-04-19 04:03:00,
2013-04-18 21:08:00,61.0,11.5,29.91,West,265,0.0,0.0,14,0.00,,---,0.00,VWS V13.01,2013-04-19 04:08:00,
2013-04-18 21:14:00,60.8,23.8,29.91,West,265,0.0,0.0,24,0.00,,---,0.00,VWS V13.01,2013-04-19 04:14:00,
2013-04-18 21:19:00,60.6,24.6,29.91,West,265,0.0,0.0,25,0.00,,---,0.00,VWS V13.01,2013-04-19 04:19:00,
2013-04-18 21:24:00,60.4,24.5,30.27,West,265,0.0,0.0,25,0.00,,---,0.00,VWS V13.01,2013-04-19 04:24:00,
2013-04-18 21:30:00,60.3,21.3,30.27,West,265,0.0,0.0,22,0.00,,---,0.00,VWS V13.01,2013-04-19 04:30:00,
2013-04-18 21:35:00,60.3,24.3,30.53,West,265,0.0,0.0,25,0.00,,---,0.00,VWS V13.01,2013-04-19 04:35:00,
2013-04-18 21:40:00,60.1,24.2,30.53,West,265,0.0,0.0,25,0.00,,---,0.00,VWS V13.01,2013-04-19 04:40:00,
2013-04-18 21:45:00,60.1,23.2,30.53,West,265,0.0,0.0,24,0.00,,---,0.00,VWS V13.01,2013-04-19 04:45:00,
2013-04-18 21:50:00,60.1,23.2,30.53,West,265,0.0,0.0,24,0.00,,---,0.00,VWS V13.01,2013-04-19 04:50:00,
2013-04-18 21:55:00,59.9,25.0,30.68,West,265,0.0,0.0,26,0.00,,---,0.00,VWS V13.01,2013-04-19 04:55:00,
2013-04-18 22:00:00,59.9,26.7,30.68,West,265,0.0,0.0,28,0.00,,---,0.00,VWS V13.01,2013-04-19 05:00:00,
2013-04-18 22:05:00,59.7,26.6,30.77,West,265,0.0,0.0,28,0.00,,---,0.00,VWS V13.01,2013-04-19 05:05:00,
2013-04-18 22:10:00,59.7,28.3,30.77,West,265,0.0,0.0,30,0.00,,---,0.00,VWS V13.01,2013-04-19 05:10:00,
2013-04-18 22:16:00,59.5,28.1,30.77,West,265,0.0,0.0,30,0.00,,---,0.00,VWS V13.01,2013-04-19 05:16:00,
2013-04-18 22:21:00,59.5,28.1,30.83,West,265,0.0,0.0,30,0.00,,---,0.00,VWS V13.01,2013-04-19 05:21:00,
2013-04-18 22:26:00,59.4,28.7,30.83,West,265,0.0,0.0,31,0.00,,---,0.00,VWS V13.01,2013-04-19 05:26:00,
2013-04-18 22:31:00,59.4,29.5,30.83,West,265,0.0,0.0,32,0.00,,---,0.00,VWS V13.01,2013-04-19 05:31:00,
2013-04-18 22:37:00,59.2,30.1,30.86,West,269,0.0,2.7,33,0.00,,---,0.00,VWS V13.01,2013-04-19 05:37:00,
2013-04-18 22:42:00,59.0,29.2,30.86,North,7,0.0,0.0,32,0.00,,---,0.00,VWS V13.01,2013-04-19 05:42:00,
2013-04-18 22:47:00,58.8,27.5,30.86,North,7,0.0,0.0,30,0.00,,---,0.00,VWS V13.01,2013-04-19 05:47:00,
2013-04-18 22:52:00,58.8,29.8,30.92,North,7,0.0,0.0,33,0.00,,---,0.00,VWS V13.01,2013-04-19 05:52:00,
2013-04-18 22:57:00,58.5,28.0,30.92,North,7,0.0,0.0,31,0.00,,---,0.00,VWS V13.01,2013-04-19 05:57:00,
2013-04-18 23:02:00,58.5,28.7,30.92,North,7,0.0,0.0,32,0.00,,---,0.00,VWS V13.01,2013-04-19 06:02:00,
2013-04-18 23:08:00,58.3,29.3,30.92,North,7,0.0,0.0,33,0.00,,---,0.00,VWS V13.01,2013-04-19 06:08:00,
2013-04-18 23:13:00,58.3,30.1,30.92,North,7,0.0,0.0,34,0.00,,---,0.00,VWS V13.01,2013-04-19 06:13:00,
2013-04-18 23:18:00,58.1,29.9,30.92,WSW,257,0.0,0.0,34,0.00,,---,0.00,VWS V13.01,2013-04-19 06:18:00,
2013-04-18 23:23:00,58.1,27.6,30.95,SSW,195,0.0,0.0,31,0.00,,---,0.00,VWS V13.01,2013-04-19 06:23:00,
2013-04-18 23:28:00,57.9,29.0,30.95,SSW,195,0.0,0.0,33,0.00,,---,0.00,VWS V13.01,2013-04-19 06:28:00,
2013-04-18 23:33:00,57.6,25.6,30.95,SSW,195,0.0,0.0,29,0.00,,---,0.00,VWS V13.01,2013-04-19 06:33:00,
2013-04-18 23:39:00,57.6,27.2,30.98,SSW,194,0.0,0.0,31,0.00,,---,0.00,VWS V13.01,2013-04-19 06:39:00,
2013-04-18 23:44:00,57.7,29.6,30.98,SSW,194,0.0,0.0,34,0.00,,---,0.00,VWS V13.01,2013-04-19 06:44:00,
2013-04-18 23:49:00,57.6,28.7,30.98,SSW,194,0.0,0.0,33,0.00,,---,0.00,VWS V13.01,2013-04-19 06:49:00,
2013-04-18 23:55:00,57.6,29.4,31.01,SSW,211,2.2,4.5,34,0.00,,---,0.00,VWS V13.01,2013-04-19 06:55:00,